[[{"header":{"parameterUnit":"m.s-1","parameterCategory":1,"la1":30.2991,"la2":30.254,"lo1":-89.0895,"lo2":-89.0444,"dy":0.0017,"dx":0.0017,"nx":28,"ny":28,"refTime":"2024-04-24T09:00:00:Z","depth":0,"parameterNumber":2,"parameterNumberName":"U-component_of_WINDS"},"data":[0,0,0,0,0,0,0,0,0,0,0,0,0,0,0,0,0,0,0,0,0,0,0,0,0,0,0,0,0,0,0,0,0,0,0,0,0,0,0,0,0,0,0,0,0,0,0,0,0,0,0,0,0,0,0,0,0,0,-0.1872,-0.1871,0,-0.1795,-0.1794,-0.1793,-0.1735,-0.1735,-0.1734,-0.1734,-0.1655,-0.1654,-0.1652,0,0,0,0,0,0,0,0,0,0,0,0,0,-0.197,-0.1968,-0.1872,-0.1871,-0.187,-0.1795,-0.1794,-0.1793,-0.1735,-0.1735,-0.1734,-0.1733,-0.1656,-0.1654,-0.1652,0,0,0,0,0,0,0,0,0,0,0,0,0,-0.1914,-0.1968,-0.1872,-0.1832,-0.1828,-0.1795,-0.1794,-0.1793,-0.1735,-0.1735,-0.1734,-0.1733,-0.1657,-0.1654,-0.1652,-0.1653,0,0,-0.1645,-0.1644,0,0,0,0,0,0,0,0,-0.1917,-0.191,-0.1839,-0.1835,-0.183,-0.1774,-0.18,-0.1746,-0.1736,-0.1771,-0.1734,-0.1733,-0.1696,-0.169,-0.1677,-0.165,-0.1646,-0.1644,-0.1643,-0.1642,-0.1641,0,0,0,0,0,0,0,-0.1921,-0.1913,-0.1842,-0.1838,-0.1833,-0.1818,-0.181,-0.1789,-0.1739,-0.1767,-0.1763,-0.1755,-0.1693,-0.168,-0.1675,-0.1645,-0.1644,-0.1642,-0.1641,-0.164,-0.1615,-0.1616,0,0,0,0,0,0,-0.1931,-0.1917,-0.1844,-0.1839,-0.1872,-0.1817,-0.1807,-0.1793,-0.1739,-0.1729,-0.1755,-0.1752,-0.1684,-0.1678,-0.1672,-0.1671,-0.1642,-0.164,-0.1638,-0.1614,-0.1615,-0.1616,0,0,0,0,0,0,-0.1933,-0.1925,-0.1847,-0.1877,-0.1866,-0.1816,-0.1801,-0.1792,-0.1778,-0.1729,-0.172,-0.1751,-0.1683,-0.1675,-0.1658,-0.1667,-0.1639,-0.1637,-0.1613,-0.1615,-0.1616,-0.1668,0,0,0,0,0,0,-0.1936,-0.1926,-0.1926,-0.1877,-0.1864,-0.1835,-0.1801,-0.1791,-0.1774,-0.1769,-0.1723,-0.1715,-0.1682,-0.1662,-0.1656,-0.1663,-0.1635,-0.1612,-0.1614,-0.1615,-0.1665,-0.167,-0.1675,0,0,0,0,0,-0.194,-0.1944,-0.1926,-0.1918,-0.1863,-0.1836,-0.1828,-0.1791,-0.1775,-0.1775,-0.1744,-0.1716,-0.1667,-0.1661,-0.1654,-0.166,-0.1612,-0.1614,-0.1615,-0.1663,-0.1669,-0.1675,0,0,0,0,0,0,-0.1995,-0.1936,-0.1917,-0.1905,-0.1876,-0.1826,-0.1824,-0.1799,-0.1773,-0.177,-0.1724,-0.1714,-0.1702,-0.1679,-0.1674,-0.1659,-0.1636,-0.1636,-0.1675,-0.168,-0.1685,-0.1692,-0.1633,0,0,0,0,0,-0.2006,-0.1988,-0.1938,-0.1932,-0.1918,-0.1874,-0.186,-0.1834,-0.1802,-0.1789,-0.1757,-0.1727,-0.1705,-0.1691,-0.1668,-0.1661,-0.165,-0.1662,-0.1667,-0.1671,-0.1672,-0.1668,-0.1672,-0.1622,-0.1622,-0.1622,0,0,-0.2028,-0.1993,-0.1985,-0.1942,-0.1916,-0.19,-0.1864,-0.1847,-0.1834,-0.1787,-0.1769,-0.1744,-0.1708,-0.1696,-0.1689,-0.1677,-0.1684,-0.1673,-0.1677,-0.1676,-0.167,-0.1675,-0.1679,-0.1623,-0.1623,-0.1623,0,0,-0.2059,-0.2031,-0.2024,-0.1999,-0.196,-0.1931,-0.1929,-0.1883,-0.1865,-0.1846,-0.181,-0.1794,-0.1757,-0.1732,-0.1715,-0.1738,-0.1712,-0.1731,-0.1758,-0.1754,-0.1758,-0.1761,-0.177,-0.1774,-0.1732,-0.1733,-0.1733,0,-0.2092,-0.2064,-0.2023,-0.2009,-0.1991,-0.1947,-0.194,-0.1917,-0.1873,-0.1863,-0.1849,-0.1801,-0.1773,-0.1756,-0.1761,-0.1749,-0.1746,-0.1737,-0.1761,-0.1764,-0.1766,-0.1774,-0.1777,-0.1735,-0.1735,-0.1735,-0.1734,0,-0.2107,-0.2088,-0.2087,-0.2045,-0.2028,-0.2017,-0.1974,-0.1961,-0.1936,-0.1908,-0.189,-0.1855,-0.1825,-0.1818,-0.1793,-0.1797,-0.179,-0.1769,-0.1746,-0.1774,-0.1781,-0.1784,-0.1739,-0.1738,-0.1737,-0.1737,0,0,-0.2171,-0.2107,-0.2108,-0.2089,-0.2043,-0.2028,-0.2015,-0.1985,-0.1975,-0.1946,-0.1934,-0.1904,-0.1884,-0.1865,-0.1837,-0.1833,-0.1854,-0.1812,-0.1811,-0.1822,-0.1857,-0.1874,-0.1878,-0.1836,-0.1837,-0.1837,-0.186,0,-0.2197,-0.2171,-0.2134,-0.2121,-0.2104,-0.2062,-0.205,-0.2021,-0.1995,-0.1977,-0.1947,-0.1926,-0.1901,-0.189,-0.1884,-0.1853,-0.1861,-0.185,-0.1826,-0.1825,-0.1837,-0.1881,-0.1899,-0.1922,-0.1862,-0.1863,-0.1863,0,-0.2223,-0.2196,-0.2182,-0.2138,-0.2129,-0.212,-0.2089,-0.2072,-0.2038,-0.2019,-0.1998,-0.1967,-0.1952,-0.193,-0.1908,-0.1902,-0.189,-0.1873,-0.1873,-0.187,-0.1847,-0.188,-0.1929,-0.1933,-0.1866,-0.1866,-0.1866,0,-0.2273,-0.2233,-0.222,-0.2204,-0.2152,-0.2147,-0.2125,-0.209,-0.2075,-0.2048,-0.2037,-0.2009,-0.1994,-0.1973,-0.1936,-0.1924,-0.1919,-0.1894,-0.1903,-0.1904,-0.1905,-0.1906,-0.1953,-0.1896,-0.1896,-0.1895,-0.1895,0,-0.2305,-0.2298,-0.2241,-0.2233,-0.2224,-0.2181,-0.2173,-0.2148,-0.2117,-0.2103,-0.2065,-0.2053,-0.2004,-0.1986,-0.1957,-0.1944,-0.1937,-0.1922,-0.1914,-0.1926,-0.1928,-0.1918,-0.1916,-0.1896,-0.1896,-0.1896,-0.1896,0,-0.236,-0.2321,-0.2304,-0.2256,-0.2244,-0.2239,-0.2198,-0.2189,-0.216,-0.2143,-0.2136,-0.2091,-0.2068,-0.2029,-0.1995,-0.1975,-0.1968,-0.1955,-0.198,-0.1975,-0.1987,-0.1987,-0.2031,-0.2035,-0.1974,-0.1975,-0.1975,0,-0.2384,-0.2378,-0.2329,-0.2317,-0.2296,-0.2277,-0.2261,-0.2219,-0.2203,-0.2165,-0.216,-0.2134,-0.2111,-0.2076,-0.2041,-0.2014,-0.2001,-0.2018,-0.1996,-0.2008,-0.2002,-0.2003,-0.2003,-0.2023,-0.2024,-0.2025,-0.2025,0,-0.2431,-0.2412,-0.239,-0.2362,-0.2344,-0.2319,-0.2293,-0.2285,-0.2237,-0.2221,-0.2198,-0.218,-0.2145,-0.212,-0.2088,-0.2066,-0.2038,-0.2032,-0.2033,-0.2045,-0.206,-0.2053,-0.1994,-0.2031,-0.2031,-0.203,-0.203,-0.203,-0.2471,-0.2464,-0.2429,-0.2406,-0.2381,-0.2357,-0.2346,-0.2316,-0.2295,-0.2264,-0.224,-0.2218,-0.2184,-0.2139,-0.2118,-0.21,-0.2087,-0.2089,-0.2089,-0.209,-0.2095,-0.2062,-0.2094,-0.2094,-0.2094,-0.2093,-0.2093,0,-0.2517,-0.2492,-0.2471,-0.2436,-0.2418,-0.2392,-0.2362,-0.2349,-0.233,-0.2301,-0.2279,-0.2252,-0.2227,-0.2189,-0.2162,-0.2155,-0.2141,-0.2149,-0.215,-0.2145,-0.2108,-0.211,-0.2161,-0.2161,-0.2161,-0.2161,-0.2161,-0.2161,-0.2539,-0.2525,-0.2502,-0.2476,-0.2451,-0.2429,-0.2414,-0.2392,-0.2369,-0.234,-0.232,-0.2295,-0.2262,-0.2232,-0.2209,-0.2198,-0.219,-0.2202,-0.2188,-0.2154,-0.2148,-0.2142,-0.2144,-0.2201,-0.2201,-0.2227,-0.2227,-0.2227]},{"header":{"parameterUnit":"m.s-1","parameterCategory":1,"la1":30.2991,"la2":30.254,"lo1":-89.0895,"lo2":-89.0444,"dy":0.0017,"dx":0.0017,"nx":28,"ny":28,"refTime":"2024-04-24T09:00:00:Z","depth":0,"parameterNumber":3,"parameterNumberName":"V-component_of_WINDS"},"data":[0,0,0,0,0,0,0,0,0,0,0,0,0,0,0,0,0,0,0,0,0,0,0,0,0,0,0,0,0,0,0,0,0,0,0,0,0,0,0,0,0,0,0,0,0,0,0,0,0,0,0,0,0,0,0,0,0,0,3.4967,3.4967,0,3.4924,3.4924,3.4923,3.4848,3.4846,3.4845,3.4844,3.4801,3.4801,3.4801,0,0,0,0,0,0,0,0,0,0,0,0,0,3.4985,3.4985,3.4967,3.4967,3.4966,3.4924,3.4924,3.4923,3.4848,3.4846,3.4845,3.4843,3.4801,3.4801,3.4801,0,0,0,0,0,0,0,0,0,0,0,0,0,3.4963,3.4985,3.4967,3.4924,3.4919,3.4925,3.4924,3.4923,3.4848,3.4846,3.4844,3.4842,3.4801,3.4801,3.4801,3.4846,0,0,3.4802,3.4803,0,0,0,0,0,0,0,0,3.4965,3.4963,3.4931,3.4927,3.4922,3.4889,3.4914,3.4897,3.4849,3.4875,3.4844,3.4841,3.4832,3.483,3.4826,3.4844,3.4843,3.4802,3.4803,3.4803,3.4803,0,0,0,0,0,0,0,3.4966,3.4964,3.495,3.493,3.4925,3.4907,3.4901,3.4911,3.4866,3.4873,3.4867,3.4863,3.4829,3.4826,3.4825,3.4842,3.4802,3.4803,3.4803,3.4803,3.4893,3.4895,0,0,0,0,0,0,3.4974,3.4966,3.4952,3.4949,3.4938,3.4908,3.4902,3.4902,3.4866,3.4859,3.4865,3.486,3.4827,3.4825,3.4823,3.4872,3.4803,3.4803,3.4803,3.4891,3.4894,3.4896,0,0,0,0,0,0,3.4975,3.4974,3.4953,3.4956,3.4952,3.491,3.4911,3.4902,3.4899,3.486,3.4852,3.487,3.4825,3.4823,3.4841,3.4869,3.4803,3.4803,3.4888,3.4892,3.4895,3.4971,0,0,0,0,0,0,3.4976,3.4974,3.4991,3.4957,3.4952,3.4972,3.4912,3.4903,3.49,3.4892,3.4863,3.4856,3.4823,3.4841,3.4841,3.4869,3.4804,3.4886,3.489,3.4894,3.4965,3.4976,3.4985,0,0,0,0,0,3.4977,3.5014,3.4992,3.499,3.4972,3.4973,3.4971,3.4932,3.4902,3.4918,3.4893,3.4857,3.4867,3.4843,3.4843,3.4871,3.4884,3.4889,3.4893,3.4961,3.4974,3.4985,0,0,0,0,0,0,3.5053,3.5009,3.4984,3.5011,3.4997,3.4961,3.4979,3.4948,3.4941,3.4935,3.4888,3.4882,3.4906,3.489,3.4865,3.4912,3.4869,3.4875,3.4921,3.4933,3.4943,3.4945,3.4804,0,0,0,0,0,3.5073,3.5077,3.5039,3.5067,3.5061,3.5022,3.5021,3.4993,3.4976,3.4969,3.4946,3.4931,3.493,3.4931,3.4929,3.4964,3.4955,3.4983,3.4993,3.5001,3.5006,3.5022,3.5033,3.4912,3.4912,3.4912,0,0,3.5114,3.5091,3.5096,3.5082,3.5067,3.5073,3.5017,3.5026,3.503,3.4971,3.4985,3.4968,3.4949,3.4975,3.4985,3.4963,3.5037,3.5008,3.5015,3.5014,3.5028,3.5039,3.505,3.4916,3.4915,3.4915,0,0,3.5191,3.5175,3.5196,3.5182,3.516,3.5134,3.514,3.5108,3.5094,3.5109,3.5064,3.5069,3.5069,3.5056,3.505,3.5124,3.5089,3.5125,3.5176,3.5192,3.5202,3.521,3.5235,3.5244,3.513,3.513,3.513,0,3.5245,3.5252,3.5211,3.5222,3.5217,3.5164,3.5184,3.5174,3.5153,3.515,3.5126,3.5125,3.5108,3.513,3.5148,3.5145,3.5149,3.5127,3.5204,3.5212,3.5219,3.5241,3.5251,3.5134,3.5134,3.5133,3.5133,0,3.5319,3.5324,3.5344,3.5324,3.5321,3.5338,3.5299,3.5301,3.5274,3.525,3.5265,3.5243,3.5235,3.5239,3.5212,3.5257,3.5243,3.5212,3.5168,3.5235,3.5256,3.5264,3.514,3.5139,3.5138,3.5136,0,0,3.5441,3.5399,3.5407,3.5396,3.5369,3.5372,3.5387,3.5378,3.538,3.5368,3.5378,3.538,3.5351,3.5344,3.5316,3.533,3.5388,3.5297,3.5296,3.5313,3.5434,3.5456,3.5467,3.5366,3.5367,3.5369,3.5435,0,3.5511,3.5532,3.5496,3.5525,3.5529,3.5479,3.5491,3.5476,3.5454,3.5455,3.5432,3.5433,3.5395,3.5391,3.5403,3.5378,3.5411,3.5373,3.5374,3.5374,3.5378,3.5478,3.5502,3.5565,3.5443,3.5444,3.5445,0,3.5595,3.5587,3.5616,3.5586,3.5587,3.5598,3.5587,3.5589,3.557,3.5554,3.5546,3.5513,3.5524,3.5483,3.5498,3.5473,3.5471,3.546,3.5461,3.5458,3.5412,3.5476,3.5585,3.5594,3.5458,3.5457,3.5456,0,3.568,3.5675,3.5692,3.5685,3.5652,3.5661,3.5647,3.5626,3.5624,3.5615,3.5612,3.5605,3.56,3.5596,3.5561,3.5535,3.558,3.5536,3.5565,3.5566,3.5575,3.5575,3.5683,3.5578,3.5578,3.5578,3.5577,0,3.576,3.578,3.5729,3.5739,3.576,3.5718,3.574,3.5721,3.5704,3.5709,3.5667,3.5673,3.5628,3.5629,3.5603,3.5618,3.5617,3.5603,3.5596,3.5606,3.5607,3.5603,3.5597,3.558,3.558,3.5579,3.5579,0,3.5857,3.5824,3.5838,3.5805,3.5798,3.5814,3.5785,3.5793,3.577,3.5778,3.5777,3.574,3.5739,3.5705,3.5698,3.568,3.5705,3.5691,3.5711,3.5706,3.5736,3.5733,3.5844,3.5856,3.5745,3.5746,3.5747,0,3.5909,3.5923,3.5892,3.5892,3.588,3.5882,3.5879,3.5839,3.5838,3.5818,3.5828,3.5824,3.5818,3.5819,3.5792,3.5786,3.5769,3.5809,3.5768,3.5778,3.5768,3.5766,3.5767,3.5817,3.5818,3.5819,3.582,0,3.6006,3.5989,3.5985,3.5977,3.5974,3.5965,3.5954,3.5957,3.5913,3.5914,3.5912,3.5908,3.59,3.5896,3.5885,3.5871,3.5838,3.5833,3.5839,3.5849,3.586,3.5852,3.5733,3.583,3.5829,3.5829,3.5828,3.5828,3.608,3.609,3.6069,3.6067,3.6054,3.6044,3.605,3.6027,3.6025,3.6015,3.5993,3.5995,3.5976,3.5957,3.5946,3.5947,3.5927,3.5937,3.5938,3.5941,3.5946,3.5861,3.5945,3.5945,3.5944,3.5944,3.5944,0,3.6173,3.6157,3.6156,3.6141,3.6139,3.6109,3.6095,3.6095,3.6098,3.6083,3.6078,3.6076,3.6072,3.6045,3.6038,3.6044,3.6028,3.6043,3.6041,3.6038,3.5965,3.596,3.6055,3.6055,3.6055,3.6055,3.6055,3.6055,3.622,3.6234,3.6215,3.6223,3.6207,3.6208,3.6203,3.6194,3.6181,3.6181,3.6178,3.616,3.614,3.6131,3.6126,3.6118,3.6116,3.6136,3.6123,3.6054,3.6043,3.6033,3.6028,3.6136,3.6136,3.6195,3.6196,3.6196]}]]